sat.trackr.live / text

‹ back to catalog

STARLINK-4056

NORAD 53242 · 2022-086A

PAYLOAD ACTIVE UNKNOWN

§ Identity

Operator
Country
US
Launch date
2022-07-24
Launch site
AFETR
Launch vehicle
Mass (kg)
RCS (m²)

Purposes: comms

External: N2YO · Heavens-Above · Gunter

§ Orbital elements

Epoch: 2026-05-25T05:03:43.838784Z

Period
95.44 min
Inclination
53.2129°
Eccentricity
0.0000971
Mean motion
15.08837511 rev/d
Perigee alt
539.1 km
Apogee alt
540.4 km
Semi-major
6,917.9 km
B*
2.7361e-5
RAAN
215.5914°
Arg perigee
92.3401°
Mean anomaly
267.7703°
Rev number
21,286

§ Raw data

STARLINK-40561 53242U 22086A   26145.21092406  .00000148  00000+0  27361-4 0  99912 53242  53.2129 215.5914 0000971  92.3401 267.7703 15.08837511212863

JSON: /api/v1/satellites/53242 · /tle

For live sub-satellite position, see the globe view (requires WebGL).

§ Visibility from observer

Set your observer location to see the next 7 days of passes ≥ 10°. The values pass through the URL so the page stays shareable.

No JS? Fill the form by hand. The geolocation button needs JavaScript.